TIME,DELAY(SENSOR),PRES,OXYGEN,RAWTEMP,T(OPTODE),TCPHASE,FLUOR,BETA(BETA700),BETA(BETA412),BETA(BETA440),CDOM,C(CSC),ED(ED412.40),ED(ED444.00),ED(ED489.70),ED(ED554.30),LU(LU411.80),LU(LU443.40),LU(LU489.60),LU(LU554.10),COMP,TILTX,TILTY,CHECK
1359346330,5809,864.0499877929688000,45.2011184692382800,660.1762695312500000,4.6221690177917480,54.2309303283691400,53,99,86,78,80,15028,2147752411,2147421961,2148011090,2147873581,2147640274,2147060114,2148258724,2147193545,3551,4,14,16294
1359349926,5809,941.7800292968750000,50.7007293701171900,668.0690917968750000,4.3619608879089355,53.5462417602539060,54,100,85,81,80,15032,2147754267,2147422482,2148009590,2147871195,2147641243,2147053293,2148261906,2147194678,3032,4,13,52386
1359353526,5805,952.0100097656250000,51.8755302429199200,669.3175048828125000,4.3207402229309080,53.4049415588378900,53,98,87,79,81,15032,2147754678,2147424969,2148010139,2147874633,2147642294,2147051574,2148265947,2147196992,3557,4,13,21768
1359357126,5813,990.0999755859375000,50.5763587951660160,675.0098876953125000,4.1325588226318360,53.6545600891113300,54,103,82,78,81,15031,2147756726,2147423981,2148011291,2147873755,2147639460,2147055387,2148264777,2147197138,20,4,13,3675
1359360726,5809,996.8800048828125000,50.4123802185058600,674.4954223632812000,4.1495819091796875,53.6696090698242200,53,100,91,80,80,15031,2147753289,2147423835,2148009792,2147874185,2147641782,2147051337,2148260681,2147197449,89,4,13,23557
1359364326,5811,1004.8900146484375000,49.9478797912597660,673.9030761718750000,4.1691761016845700,53.7264900207519500,53,98,83,80,80,15030,2147755977,2147422957,2148009600,2147873462,2147642742,2147053019,2148266121,2147192109,444,4,13,8058
1359367926,5807,999.2500000000000000,49.9327011108398440,674.0858764648438000,4.1631298065185550,53.7296485900878900,53,99,90,82,80,15030,2147754084,2147423570,2148011730,2147875776,2147644626,2147049243,2148263917,2147195538,550,4,13,62851
1359371526,5808,1000.1099853515625000,50.1186485290527340,674.9050292968750000,4.1360301971435550,53.7191505432128900,53,99,87,77,81,15031,2147755894,2147426203,2148013348,2147870628,2147642313,2147050294,2148265993,2147194852,138,4,13,20571
1359375126,5811,1002.8900146484375000,49.8514099121093750,674.6920166015625000,4.1430778503417970,53.7485084533691400,52,98,88,78,80,15031,2147754386,2147422683,2148008896,2147873499,2147644900,2147052361,2148265910,2147192246,304,4,13,45556
1359378726,5804,1004.6300048828125000,49.8532714843750000,675.0977172851562000,4.1296520233154300,53.7518806457519500,51,97,83,78,80,15030,2147756406,2147425152,2148011465,2147874989,2147643611,2147058852,2148261906,2147195922,3551,4,13,9302
1359382326,5811,1011.5999755859375000,49.8681907653808600,674.4370727539062000,4.1515121459960940,53.7446784973144500,52,98,85,79,81,15032,2147759378,2147423753,2148008640,2147872941,2147640704,2147052379,2148266761,2147195264,2755,4,13,49344
1359385926,5808,1014.4899902343750000,50.3646087646484400,672.9796752929688000,4.1997170448303220,53.6585807800293000,53,100,86,80,82,15031,2147758528,2147425572,2148011044,2147872694,2147643218,2147055862,2148264749,2147198226,3376,4,13,54457
1359389526,5805,1007.4600219726562000,49.6536407470703100,672.7551269531250000,4.2071418762207030,53.7516593933105500,52,97,86,79,81,15031,2147758738,2147422976,2148011145,2147875730,2147641517,2147053394,2148262427,2147197632,565,4,13,61827
1359393126,5808,1001.1300048828125000,49.4395103454589840,674.8090820312500000,4.1392021179199220,53.8067092895507800,53,99,86,79,81,15032,2147757302,2147424658,2148009819,2147874925,2147642806,2147053714,2148263606,2147194075,3370,4,13,26440
1359396726,5810,1008.7999877929688000,50.6034088134765600,675.5894165039062000,4.1133799552917480,53.6544990539550800,52,98,87,79,79,15028,2147760978,2147424393,2148010779,2147871085,2147644534,2147051748,2148266880,2147195053,101,4,13,61581
1359400326,5810,1005.1799926757812000,49.8426704406738300,675.6287841796875000,4.1120758056640625,53.7614784240722660,52,97,88,80,80,15028,2147754989,2147423451,2148006436,2147873033,2147645339,2147055625,2148267776,2147196992,3444,4,13,26718
1359403926,5808,1014.3599853515625000,49.9575881958007800,675.1447143554688000,4.1280980110168460,53.7387619018554700,52,100,86,79,81,15029,2147758610,2147426075,2148011035,2147872118,2147645211,2147055158,2148265536,2147196507,454,4,13,44198
1359407526,5810,1010.0499877929688000,49.4238700866699200,675.2006835937500000,4.1262450218200680,53.8121109008789060,53,99,88,78,81,15027,2147754450,2147423122,2148010550,2147878006,2147643611,2147051492,2148263908,2147195812,374,4,13,60775
1359411126,5809,1007.2800292968750000,49.1772384643554700,675.0297241210938000,4.1319031715393070,53.8495101928710940,52,98,89,79,80,15028,2147756918,2147427958,2148005568,2147875126,2147643456,2147053604,2148263515,2147194870,57,4,13,53098
1359414726,5810,1010.6199951171875000,49.5285110473632800,674.2744750976562000,4.1568908691406250,53.7899513244628900,54,99,89,78,81,15030,2147757686,2147423954,2148011154,2147873124,2147641206,2147051867,2148264301,2147196845,102,4,13,39758
1359418326,5808,1023.1199951171875000,49.2017402648925800,673.1862182617188000,4.1928877830505370,53.8170509338378900,52,98,84,78,81,15027,2147753490,2147423890,2148012050,2147876324,2147641554,2147055442,2148262939,2147196745,111,4,13,21030
1359421926,5807,1020.5000000000000000,49.0005111694335940,672.7266845703125000,4.2080798149108890,53.8435592651367200,52,98,85,78,81,15027,2147758427,2147423917,2148010340,2147871661,2147643584,2147054857,2148263972,2147193536,154,4,13,46354
1359425526,5809,1013.3800048828125000,48.9378089904785160,673.1691894531250000,4.1934490203857420,53.8546905517578100,52,98,86,79,81,15025,2147758701,2147426176,2148012297,2147873261,2147643236,2147053714,2148264283,2147196516,3471,4,13,62025
1359429126,5810,1014.8099975585938000,48.8382911682128900,673.5341796875000000,4.1813769340515140,53.8745613098144500,52,98,86,80,81,15021,2147756516,2147426550,2148010203,2147872374,2147645312,2147056722,2148264201,2147199149,3593,4,13,58407
1359432726,5803,1011.1099853515625000,49.0848197937011700,674.3930053710938000,4.1529707908630370,53.8497886657714840,52,98,88,79,81,15024,2147755117,2147425472,2148012461,2147872612,2147643648,2147051309,2148259172,2147197330,319,4,13,56449
1359436326,5809,1017.4500122070312000,49.3941307067871100,674.3151855468750000,4.1555418968200680,53.8083801269531250,52,101,88,79,81,15022,2147757696,2147426038,2148009737,2147874230,2147643968,2147049216,2148261504,2147197970,3514,4,13,398
1359439926,5807,1012.8599853515625000,49.1731491088867200,674.7750854492188000,4.1403288841247560,53.8426704406738300,52,100,90,80,81,15022,2147758820,2147420973,2148012635,2147872475,2147643117,2147053165,2148261037,2147195300,3426,4,13,41192
1359443526,5809,1007.8499755859375000,49.9041213989257800,676.8958129882812000,4.0701332092285160,53.7686500549316400,52,98,85,78,80,15021,2147759049,2147423835,2148011309,2147874148,2147640795,2147057773,2148267282,2147196608,3280,4,13,25647
1359447126,5809,999.7700195312500000,50.7559204101562500,677.8909301757812000,4.0371780395507810,53.6650810241699200,52,100,91,80,80,15022,2147753033,2147422592,2148013220,2147876617,2147641325,2147048850,2148256950,2147199094,378,4,13,59955
1359450726,5809,1006.3900146484375000,50.4856986999511700,678.1641845703125000,4.0281219482421875,53.7054710388183600,52,100,87,80,82,15020,2147756717,2147422061,2148009289,2147873115,2147644717,2147053906,2148262884,2147199533,3446,4,13,12036
1359454326,5809,1013.2700195312500000,50.1956291198730500,677.0260009765625000,4.0658211708068850,53.7316818237304700,53,98,83,79,80,15018,2147757275,2147423835,2148010368,2147871945,2147641344,2147056475,2148264027,2147200420,276,4,13,29947
1359457926,5807,1012.4899902343750000,49.8410301208496100,676.1143798828125000,4.0960030555725100,53.7710113525390600,52,97,84,80,80,15023,2147754971,2147424950,2148010532,2147876132,2147643620,2147058624,2148268123,2147196315,144,4,13,19271
1359461526,5810,1011.4199829101562000,49.3831405639648440,676.3768920898438000,4.0873131752014160,53.8376388549804700,53,98,85,78,80,15022,2147754614,2147425874,2148012242,2147875254,2147643666,2147057069,2148263442,2147199616,80,4,13,30531
1359465126,5814,1022.3400268554688000,49.9192314147949200,675.4232177734375000,4.1188812255859375,53.7498817443847660,52,98,82,79,81,15016,2147753417,2147426724,2148012141,2147875181,2147643392,2147054326,2148259867,2147198701,44,4,13,169
1359468726,5808,1023.1599731445312000,49.7380409240722660,675.0106201171875000,4.1325378417968750,53.7685508728027340,52,103,86,78,81,15012,2147758829,2147423424,2148013074,2147877568,2147642898,2147056731,2148264804,2147198820,255,4,13,43476
1359472326,5808,1025.9399414062500000,49.2507095336914060,673.4066772460938000,4.1855959892272950,53.8160209655761700,51,97,84,79,81,15012,2147754112,2147425133,2148013494,2147875291,2147642468,2147051227,2148260781,2147200658,168,4,13,50269
1359475926,5808,1009.4400024414062000,48.9172401428222660,674.2650756835938000,4.1572017669677730,53.8744888305664060,52,99,85,79,80,15011,2147755483,2147424045,2148012946,2147869915,2147644342,2147051803,2148260196,2147198390,3553,4,13,25702
1359479526,5806,1011.6199951171875000,49.9079093933105500,675.3499755859375000,4.1213049888610840,53.7518386840820300,53,100,85,78,81,15008,2147755885,2147425115,2148011904,2147877174,2147642304,2147055670,2148265737,2147197046,263,4,13,29582
1359483126,5810,1014.1599731445312000,49.9135093688964840,676.3137207031250000,4.0894069671630860,53.7583389282226560,52,98,84,80,80,15012,2147751771,2147423542,2148015140,2147872996,2147643474,2147054564,2148261385,2147199222,145,4,13,15108
1359486726,5811,1008.5700073242188000,50.6718215942382800,677.0059204101562000,4.0664877891540530,53.6663589477539060,53,101,88,80,80,15011,2147757037,2147423780,2148012434,2147872868,2147641892,2147052873,2148265088,2147197229,23,4,13,14509
1359489656,5806,1017.7600097656250000,50.4903106689453100,676.6135864257812000,4.0794749259948730,53.6837806701660160,51,98,86,79,80,15027,2147755803,2147425243,2148011730,2147868553,2147642514,2147056841,2148262180,2147199387,255,4,13,56830
